Wind_Speed
7 7 8 8 8 9 9 9 10 10 11 11 12 12 13 13 14 14 14 14 15 16 16 17 17 18 19 20 21 22 22 22 22 23 23 23 22 22 23 23 24 25 26 27 27 26 25 25 24 22 21 19 18 18 18 17 18 18 19 19 19 20 20 20 20 20 20 20 19
8 8 8 9 9 9 9 10 10 10 11 11 12 12 13 13 14 14 14 15 15 16 17 17 17 18 19 20 21 21 21 22 22 22 22 22 22 22 23 23 24 24 25 26 26 25 25 25 24 22 21 20 20 19 18 17 18 19 19 20 19 19 19 19 19 20 20 20 19
8 8 8 9 9 9 10 10 10 11 12 12 12 13 13 13 14 14 14 15 16 16 17 17 18 19 19 20 20 21 21 21 22 22 22 22 22 22 22 22 23 24 24 25 25 25 25 25 24 22 20 20 20 20 20 19 19 20 21 20 19 19 18 18 18 19 19 19 19
8 8 9 9 9 10 10 11 11 12 12 13 13 13 13 13 14 14 15 16 16 17 17 17 18 19 19 19 20 21 21 21 21 21 21 21 22 22 22 22 23 23 23 24 25 25 25 25 23 21 20 20 20 19 20 20 21 21 21 20 19 19 18 18 18 19 19 19 20
8 8 9 9 10 10 11 11 12 12 13 13 13 13 13 13 14 14 15 16 16 17 17 18 18 19 19 19 20 21 21 21 20 20 20 21 21 21 22 22 23 23 23 23 24 25 25 24 22 20 19 20 19 19 19 20 21 21 20 20 19 18 18 18 18 18 18 19 20
8 9 9 10 10 11 11 12 12 13 13 13 13 14 14 14 14 15 16 17 17 18 18 18 18 18 19 19 20 20 20 20 20 20 20 20 21 21 22 22 23 23 23 23 23 24 24 23 21 20 19 19 19 20 20 20 21 21 21 20 19 18 17 17 18 18 18 19 20
9 9 10 10 11 11 12 12 13 13 13 14 14 14 15 15 16 16 17 17 18 18 17 17 18 18 19 20 20 20 20 20 20 20 20 20 20 21 21 22 22 23 23 23 23 23 23 22 21 20 20 20 19 20 20 21 21 21 21 20 19 18 18 18 18 18 18 19 21
9 10 10 11 11 12 12 13 13 13 14 14 14 15 15 16 16 17 17 17 17 17 17 17 18 18 19 20 20 20 20 20 20 20 19 19 20 21 21 21 22 23 23 23 23 22 22 21 20 19 19 19 20 20 21 21 22 21 21 21 20 19 18 18 18 18 19 20 20
10 10 11 11 11 12 12 13 13 14 14 15 15 15 16 16 17 17 17 17 16 17 17 18 18 19 19 20 20 20 20 20 20 20 20 20 20 20 20 21 22 22 23 23 22 22 21 21 20 19 19 19 20 21 22 22 22 22 21 20 20 20 19 19 19 19 19 19 20
10 10 11 11 11 12 12 13 14 14 15 15 15 16 16 16 16 16 16 16 17 17 18 18 18 19 19 19 19 19 19 19 20 20 20 20 20 20 20 20 21 22 22 23 23 22 21 20 19 20 20 20 21 21 22 22 21 22 21 20 20 20 21 20 19 19 19 19 19
10 11 11 11 12 12 13 13 14 14 14 15 15 15 16 16 16 16 16 16 17 18 18 18 18 19 19 19 19 19 19 19 20 20 20 20 20 19 20 20 21 22 22 22 22 21 20 19 19 20 21 21 21 21 21 21 22 22 21 20 20 21 21 21 21 20 19 19 20
10 11 11 11 12 12 13 13 14 14 14 15 15 15 16 16 16 16 17 17 17 18 18 18 18 18 19 18 18 19 19 19 20 20 20 20 20 20 20 20 21 22 22 22 22 21 20 20 20 21 22 22 21 20 20 21 22 22 21 21 21 21 21 22 22 21 20 19 20
10 11 11 11 11 12 13 13 14 14 14 15 15 15 15 16 16 16 17 17 17 18 18 18 18 18 18 18 18 19 19 20 20 20 20 20 20 20 19 20 21 22 22 22 22 22 21 21 21 21 22 22 21 21 21 22 22 22 21 21 22 22 22 23 23 22 21 20 20
10 10 11 11 11 12 12 13 13 13 14 14 15 15 15 16 16 17 17 17 17 18 18 18 18 18 18 18 19 19 19 20 20 20 20 20 20 20 20 20 22 23 23 23 23 23 23 23 22 21 21 21 21 22 22 22 22 21 21 22 22 23 23 23 23 23 22 22 21
10 10 11 11 11 11 12 12 13 13 14 14 14 15 16 16 16 17 17 17 18 18 18 18 18 18 18 19 19 19 19 19 20 20 20 20 20 20 20 20 22 23 24 24 24 24 23 23 22 21 20 20 21 22 23 23 22 22 21 21 22 23 23 23 23 23 23 22 21
10 10 10 10 11 11 12 12 13 13 13 14 15 15 16 16 17 17 17 17 18 18 18 18 18 19 19 19 19 19 19 19 19 19 20 20 20 20 20 21 22 24 25 25 25 25 24 23 22 21 20 20 21 21 22 22 22 21 21 21 22 22 23 23 24 24 23 22 21
10 10 10 10 11 11 12 13 13 14 14 15 15 16 16 17 17 17 18 18 18 18 19 19 19 19 19 19 19 19 19 19 19 19 19 20 20 21 21 21 22 24 25 26 26 26 25 24 23 21 19 19 20 21 21 21 21 21 20 21 21 22 23 23 24 24 23 22 21
10 10 10 11 11 12 12 13 14 14 15 16 16 16 16 17 17 18 18 18 19 19 20 20 20 20 19 19 19 19 19 19 19 20 20 20 21 21 21 21 22 24 25 26 26 26 25 25 23 21 19 18 18 19 19 20 20 19 19 20 21 22 23 23 23 23 22 21 20
10 10 10 11 11 12 13 14 14 15 15 16 16 16 17 17 18 18 19 19 19 19 20 20 20 20 20 20 20 20 19 19 20 20 21 21 21 21 21 22 23 24 25 25 25 25 25 25 24 21 18 17 16 17 17 18 18 18 19 19 20 21 22 22 22 21 21 20 20
10 10 11 11 12 12 13 14 14 15 16 16 16 17 17 17 18 18 19 19 19 19 19 20 20 20 20 20 20 20 20 20 20 20 21 21 21 21 22 22 23 24 25 25 25 25 25 25 24 21 18 15 14 14 15 16 17 17 18 18 19 20 20 21 21 21 20 20 20
10 11 11 11 12 13 13 14 15 15 16 16 16 17 17 18 18 18 19 19 19 19 19 19 19 20 20 20 20 20 21 20 20 21 21 21 21 22 22 23 23 24 24 24 24 25 25 25 24 22 18 14 12 12 13 14 16 17 17 17 18 18 19 20 20 20 21 21 20
10 11 11 12 12 13 13 14 15 15 16 16 16 17 17 17 18 18 19 19 19 19 19 19 19 19 20 20 20 21 21 21 21 21 21 21 22 22 22 23 23 24 24 23 23 24 25 26 25 22 17 12 9 10 12 14 15 16 16 16 17 18 19 19 20 21 21 21 20
11 11 11 12 12 13 13 14 15 15 15 16 16 16 17 17 18 18 18 19 19 19 19 19 19 19 20 21 21 21 21 21 21 21 21 21 22 22 22 22 23 23 22 22 22 23 24 25 25 21 15 9 8 10 11 13 14 14 15 16 17 18 18 19 20 21 21 21 20
11 11 12 12 12 13 13 14 14 15 15 15 16 16 16 17 17 18 18 18 18 19 19 19 20 20 21 21 21 21 20 20 21 21 21 22 22 22 22 22 22 22 21 21 22 22 23 24 24 19 13 8 7 9 11 12 13 14 14 15 16 17 18 18 19 20 21 21 20
11 11 12 12 13 13 13 14 14 15 15 15 15 16 16 17 17 17 18 18 19 19 19 20 20 21 21 20 20 19 19 20 20 21 21 22 22 22 22 22 21 22 22 23 22 22 22 24 24 20 13 8 7 9 10 12 12 13 14 15 16 16 17 17 18 19 20 20 21
11 12 13 13 13 13 13 14 14 14 15 15 15 15 16 16 16 17 18 18 19 19 19 20 20 20 19 19 18 18 19 19 20 20 21 22 22 22 22 22 22 22 23 23 22 22 23 24 25 22 16 10 8 8 10 11 12 12 14 15 15 16 16 16 17 18 19 20 21
11 12 13 13 13 13 13 14 14 14 14 14 15 15 15 16 16 17 17 18 19 19 19 19 19 18 18 18 18 18 19 19 20 20 21 21 22 22 22 22 22 23 24 23 22 23 23 23 24 24 20 14 10 8 9 10 11 12 13 14 15 15 15 16 16 17 19 20 20
12 12 12 13 13 13 13 13 14 14 14 14 15 15 15 16 16 17 17 18 18 18 18 17 17 17 16 17 17 18 19 20 20 20 20 21 21 22 22 22 22 23 23 23 23 23 23 23 24 25 23 18 12 9 8 10 11 12 12 13 14 14 15 15 16 16 18 19 20
12 12 12 13 13 13 13 13 13 14 14 14 14 15 15 15 16 16 17 17 17 17 17 16 16 16 16 17 18 19 20 20 20 20 20 21 21 22 22 22 23 23 24 24 24 23 23 23 23 25 24 20 14 10 9 10 10 10 11 12 13 14 15 15 15 16 17 18 19
12 12 13 13 13 13 13 13 13 13 14 14 14 15 15 16 16 16 16 16 16 16 16 16 16 17 17 18 19 19 19 19 19 19 20 21 21 22 22 23 23 24 24 24 24 23 23 23 24 25 25 23 16 12 10 10 9 9 10 12 13 15 16 16 16 16 16 17 18
12 12 13 13 13 13 13 13 13 13 14 14 15 15 15 16 16 16 16 16 16 16 16 16 17 17 18 18 18 19 19 19 19 20 20 20 21 22 22 23 24 24 24 24 24 24 24 24 24 26 27 25 18 13 11 11 9 9 9 11 14 15 16 16 15 15 16 17 17
12 13 13 13 14 13 13 13 13 13 14 14 15 15 15 15 16 16 16 16 16 16 16 16 17 17 18 18 18 18 19 19 19 20 20 20 21 22 23 23 23 24 24 24 24 25 25 25 25 26 27 26 18 14 12 12 10 9 9 11 13 15 16 16 15 15 16 16 17
13 13 13 13 14 14 13 13 13 13 14 14 15 15 15 15 16 16 16 15 15 16 16 16 17 17 17 18 18 18 19 19 19 20 20 21 21 22 23 23 23 23 23 24 25 25 25 25 25 26 26 24 19 15 13 13 12 11 10 11 12 13 14 15 15 15 15 16 16
13 13 13 14 14 13 13 13 13 14 14 14 15 15 15 15 16 16 16 15 15 15 16 16 16 17 17 17 17 18 18 19 19 20 20 21 21 22 22 23 22 23 23 24 25 26 26 26 26 26 26 24 20 16 14 13 13 13 12 11 12 12 14 15 15 16 15 15 15
13 13 13 13 13 13 13 13 13 14 14 15 15 15 15 15 15 16 16 15 15 16 16 16 16 17 17 17 17 17 18 19 20 20 21 21 21 22 22 23 23 23 24 25 25 26 26 26 25 26 25 24 21 18 16 15 15 14 13 12 12 12 13 14 16 16 15 15 15
13 13 13 14 13 13 13 13 13 14 14 15 15 15 15 15 15 15 15 15 15 16 16 16 17 17 17 17 17 17 18 18 19 20 21 21 21 22 22 23 23 24 25 25 25 26 26 26 25 25 25 24 23 21 18 16 16 15 14 13 12 12 12 13 15 15 16 15 15
13 13 13 13 13 13 13 13 14 14 14 15 15 15 15 16 16 15 15 15 15 16 16 16 17 17 17 17 18 18 18 18 19 20 21 21 21 21 22 23 24 24 25 25 25 25 26 26 26 26 25 25 24 23 21 18 16 15 13 13 12 12 12 12 13 15 16 16 16
13 13 13 13 13 13 13 13 14 14 15 15 15 15 15 15 15 15 15 15 15 16 16 17 17 17 17 18 18 18 18 18 19 19 20 20 20 21 21 22 23 24 24 25 25 25 26 26 27 27 26 25 24 24 23 20 17 15 13 12 11 11 10 11 12 14 15 16 16
13 13 13 13 14 14 14 14 14 14 15 15 15 15 15 15 15 15 15 15 15 16 16 17 17 18 18 18 18 19 19 19 19 19 19 20 20 21 21 22 23 23 24 24 25 25 26 27 28 28 28 26 24 23 22 22 19 16 13 11 10 9 9 10 11 13 14 15 16
12 12 13 13 14 14 14 14 14 14 15 15 15 15 16 16 16 15 15 15 15 16 16 17 17 18 18 18 18 19 19 19 19 19 19 20 20 21 21 22 22 23 23 24 24 25 26 27 28 29 29 27 24 22 21 22 21 17 13 10 8 8 9 9 10 12 13 14 15
12 12 12 13 13 14 14 14 14 15 15 15 15 15 16 16 16 16 16 16 16 16 17 17 17 18 18 18 18 18 19 19 19 19 20 20 20 21 21 21 22 23 23 23 24 25 26 26 27 28 28 27 25 23 22 23 22 18 12 9 8 8 9 9 10 11 12 13 14
Wind_Direction
281 281 282 283 285 287 288 290 292 294 296 299 302 303 304 304 304 305 306 307 308 309 310 311 311 313 315 317 319 320 322 323 325 327 328 329 330 330 331 332 333 334 334 333 333 333 334 334 332 330 326 323 322 321 321 321 320 319 317 315 313 311 310 308 305 305 303 300 298
279 280 281 282 283 284 287 290 292 294 296 300 301 302 302 302 302 303 304 305 306 307 308 309 310 312 314 316 318 320 321 322 324 326 328 329 330 331 331 332 333 334 334 334 334 335 335 334 333 330 327 325 325 324 323 323 324 324 322 319 317 315 314 312 310 309 309 307 305
279 280 280 281 283 285 287 290 292 294 297 299 299 300 300 300 300 300 302 303 305 306 307 308 310 312 314 315 317 318 320 321 323 325 327 328 330 331 332 332 333 333 334 335 335 335 335 334 333 331 328 326 325 325 326 326 327 327 326 324 321 319 317 315 316 315 315 314 312
278 279 280 280 282 284 287 289 291 295 297 298 299 298 298 298 298 299 300 302 304 305 307 308 310 311 313 314 315 316 318 320 322 324 326 327 329 330 332 332 332 333 333 334 335 335 335 334 333 331 329 327 325 324 325 327 328 328 327 326 325 324 323 322 321 321 320 318 317
278 278 279 280 282 285 287 288 291 294 297 298 298 297 297 297 297 299 301 303 304 305 306 307 308 309 310 312 313 314 316 318 320 322 324 326 328 329 331 332 332 332 332 333 334 335 335 335 333 331 330 329 328 326 325 326 327 327 327 326 325 325 325 326 325 324 322 321 321
278 278 279 281 283 285 286 288 291 294 296 296 296 295 296 297 298 300 302 303 303 304 305 306 307 308 309 310 312 313 314 316 317 319 321 324 326 328 330 331 332 332 332 332 333 335 336 336 334 332 331 330 328 326 326 326 326 326 325 325 325 325 325 325 324 324 323 323 323
280 280 280 281 283 284 285 287 290 293 294 294 294 294 295 297 298 300 301 302 302 303 305 306 307 308 309 310 311 312 313 314 314 316 318 321 323 326 328 330 331 332 332 332 333 334 335 336 334 333 331 330 328 327 327 327 326 325 324 323 324 324 323 323 323 322 322 322 322
281 280 280 281 282 284 285 288 290 292 293 293 292 293 294 296 298 300 301 302 302 303 304 305 306 307 308 309 310 310 311 311 312 313 315 317 320 323 325 327 330 331 332 333 333 334 334 334 333 332 331 329 327 326 326 326 325 324 323 322 322 322 322 321 321 321 321 320 320
281 281 281 283 283 284 286 288 290 291 292 291 292 292 294 296 298 300 301 302 302 303 304 305 306 307 308 308 309 309 309 310 310 311 312 314 316 319 322 324 327 329 332 333 333 333 332 332 331 330 328 327 325 324 323 324 324 324 323 322 322 322 322 321 321 321 321 321 320
281 281 283 284 285 286 288 290 291 291 291 291 291 292 294 295 297 299 300 301 302 302 303 304 305 306 307 308 308 308 308 309 309 310 311 312 313 315 318 320 323 326 329 332 333 332 331 330 328 326 326 325 323 322 322 323 323 323 322 321 321 321 321 322 322 323 323 322 321
281 282 283 285 287 288 290 291 292 292 292 291 292 292 294 294 296 297 298 300 300 301 302 304 305 306 307 307 307 308 308 308 309 309 310 310 311 312 314 316 319 321 325 328 330 331 329 327 324 323 323 324 323 322 322 322 323 322 321 320 321 321 322 323 324 324 324 324 323
282 283 283 285 287 289 291 292 292 292 292 292 292 293 293 294 295 297 298 299 299 300 301 303 304 305 305 306 306 307 308 309 309 309 309 310 310 311 312 313 315 317 320 324 327 328 327 324 322 322 322 322 323 322 321 322 322 321 320 320 321 321 322 323 325 325 324 323 323
282 283 284 286 288 290 291 291 292 292 292 293 293 294 294 295 296 297 298 298 299 300 301 302 303 303 304 304 305 306 308 308 309 309 310 310 310 311 311 312 313 315 317 320 323 325 325 323 321 320 320 321 321 320 320 321 321 320 319 319 320 322 322 324 325 325 324 324 324
282 283 284 286 289 290 291 291 292 292 293 294 295 295 296 297 297 298 298 298 298 299 300 301 302 302 303 304 305 306 307 308 309 310 311 311 311 312 311 311 312 313 314 317 319 322 323 322 321 319 318 318 319 319 320 320 320 319 317 317 317 319 321 323 325 325 324 324 324
282 283 285 287 289 290 291 292 293 293 295 296 297 297 298 298 298 298 298 298 298 298 299 299 300 301 302 303 304 305 306 308 309 311 312 312 313 313 312 311 311 312 313 315 317 319 321 322 321 319 317 316 317 318 319 320 320 319 318 317 317 318 319 321 323 324 323 323 322
281 283 285 287 289 291 292 293 294 295 296 297 298 299 300 300 299 299 298 298 298 298 298 298 299 300 301 302 303 305 306 308 309 311 312 313 314 314 313 312 311 312 313 314 315 317 320 322 321 319 316 313 314 316 318 320 321 321 320 319 318 318 319 320 321 322 322 322 321
281 283 285 288 289 291 292 294 295 295 296 297 298 299 300 300 300 299 298 298 298 297 297 297 298 299 300 301 303 304 306 307 309 310 311 313 314 314 313 312 311 312 313 314 315 316 318 320 321 319 315 312 313 315 318 320 322 322 322 321 320 320 319 319 319 320 321 320 320
280 283 285 287 289 291 292 294 294 295 296 297 298 299 299 300 300 299 299 298 297 296 296 296 297 297 298 300 301 303 305 305 307 308 310 311 312 313 313 312 311 311 312 314 314 315 316 318 318 317 313 310 312 315 318 321 322 323 323 323 321 320 319 319 318 318 318 318 318
279 282 285 287 289 291 293 294 294 296 297 298 298 299 299 299 299 299 299 298 297 297 296 296 296 297 297 299 300 302 303 304 304 306 307 309 310 311 311 311 310 311 312 313 314 315 316 316 315 312 307 306 309 315 319 321 322 323 324 323 321 320 319 318 318 317 316 315 316
279 282 284 287 290 292 293 294 295 296 297 298 299 299 299 300 300 300 300 299 298 297 296 296 296 296 297 299 300 301 302 303 303 304 306 307 308 309 310 310 310 310 311 312 313 315 315 315 312 306 299 297 305 314 319 320 320 322 322 321 319 318 318 318 318 317 316 315 316
279 281 284 287 290 292 293 294 296 297 298 300 300 300 301 302 302 301 301 300 300 299 297 296 296 296 297 299 300 301 302 303 303 303 304 306 307 308 308 309 309 310 311 312 312 314 315 314 309 300 290 288 302 315 319 317 317 318 317 315 315 316 317 318 319 318 318 316 316
279 282 285 287 290 292 294 295 296 297 298 300 300 302 303 303 303 303 303 303 302 301 299 298 297 297 297 298 299 301 302 303 302 302 304 305 306 307 307 308 308 309 310 310 310 312 314 314 308 296 283 281 305 321 321 315 312 310 309 309 311 314 316 319 320 320 320 318 316
278 282 285 288 290 293 294 296 297 298 298 299 301 302 304 304 305 305 305 305 304 302 301 299 298 298 298 299 300 301 301 301 301 301 303 305 306 306 307 307 308 308 308 308 309 310 312 312 307 296 281 281 313 325 321 313 307 304 304 306 308 311 314 318 320 322 322 321 319
279 282 286 288 291 293 295 296 297 297 298 299 301 303 304 305 306 307 307 307 306 305 303 302 301 300 300 300 300 300 299 299 300 301 302 304 305 306 307 308 308 308 307 307 308 309 310 311 310 301 286 282 311 321 316 308 303 300 300 302 304 307 311 316 320 323 324 324 323
279 282 285 288 290 292 294 294 295 296 298 300 302 304 306 307 308 308 308 309 308 307 306 304 303 303 301 300 299 298 298 299 300 302 303 304 305 306 308 308 308 308 307 308 308 309 311 313 315 311 299 283 295 305 305 302 301 299 298 298 300 303 308 314 320 324 327 327 326
279 283 286 287 289 291 292 293 295 296 298 301 303 305 306 307 308 309 309 310 310 310 309 307 306 304 301 299 298 298 299 301 302 303 304 304 305 307 308 308 308 307 308 308 309 311 312 315 318 318 312 292 283 288 295 299 302 300 297 296 297 301 306 312 319 325 329 330 329
279 283 286 288 289 290 292 293 295 297 299 301 303 305 306 308 309 309 310 311 311 312 311 309 306 304 302 301 300 301 302 303 304 304 304 304 305 307 307 308 307 307 307 307 309 311 313 315 319 320 316 302 283 279 292 303 305 301 298 296 297 300 305 312 319 325 329 331 331
276 282 287 289 289 290 292 294 295 297 299 301 303 305 306 307 308 309 310 311 312 312 311 310 308 307 306 305 304 304 304 304 305 305 305 306 306 306 307 307 307 307 307 308 310 311 313 314 317 320 318 309 289 280 293 310 309 303 299 299 299 302 306 312 318 324 328 330 332
275 283 287 287 288 290 292 294 295 298 300 302 303 304 306 307 308 309 311 311 312 312 312 312 311 310 309 308 306 306 306 306 306 306 307 307 307 307 307 307 307 306 306 307 309 311 312 313 316 319 318 311 295 283 295 315 311 305 301 301 301 303 307 312 316 321 326 329 331
276 282 285 286 288 289 291 293 295 298 300 302 303 304 305 307 308 309 310 312 312 313 313 313 312 311 310 308 308 308 308 308 308 308 308 308 307 307 307 308 307 306 306 307 309 311 312 314 316 318 318 313 297 286 295 312 308 303 301 301 301 303 306 310 313 318 323 327 330
274 279 282 284 286 288 290 293 295 298 300 301 303 304 305 306 308 309 311 312 312 313 313 313 312 311 310 309 309 309 309 309 309 309 309 309 309 309 308 308 307 307 307 308 310 312 313 315 316 318 318 315 302 292 296 303 297 294 297 298 299 302 306 308 311 315 320 324 327
271 276 280 282 284 287 289 292 295 297 299 300 302 303 304 306 307 309 311 311 311 312 313 313 313 312 311 311 310 310 310 310 310 310 310 310 309 309 309 309 308 307 308 309 311 313 314 316 317 318 319 319 309 299 295 292 285 285 291 295 299 303 306 307 309 312 316 320 323
268 273 277 280 282 285 288 291 294 297 299 300 301 302 303 305 307 309 310 311 312 312 313 313 313 313 312 312 311 311 311 310 310 311 311 310 310 310 310 310 309 309 309 311 313 314 316 317 318 320 321 322 314 304 293 282 277 279 287 296 303 307 308 307 307 309 312 315 318
265 271 276 278 280 284 287 290 293 296 298 299 301 302 304 306 307 309 310 311 312 312 312 312 312 312 311 311 310 310 310 310 311 311 311 311 311 311 311 311 310 311 311 313 314 315 316 318 319 321 323 323 317 306 292 278 274 278 287 300 307 310 310 308 307 307 309 311 314
265 271 274 275 279 282 286 290 293 295 297 298 300 302 304 306 308 309 310 311 311 311 311 311 311 310 309 309 309 309 309 310 310 311 311 312 312 312 312 312 312 312 313 315 315 316 317 319 320 323 325 324 318 308 294 280 275 279 290 302 309 313 313 311 309 308 307 308 311
263 267 270 273 277 281 285 289 292 294 296 297 299 302 304 306 307 308 309 310 310 310 310 310 310 310 310 309 309 309 309 310 310 311 311 312 312 313 313 313 314 314 315 316 316 316 317 318 320 322 324 324 320 310 297 282 275 279 290 301 308 313 315 314 312 310 309 309 310
259 263 267 272 276 280 284 288 291 293 294 296 298 301 303 306 307 308 308 309 310 309 309 310 310 310 309 309 309 309 309 309 310 310 311 311 312 313 314 315 315 315 315 316 316 316 316 317 318 319 321 321 320 314 304 288 277 276 285 295 303 310 314 314 314 312 312 311 313
257 261 264 269 274 278 282 285 288 290 292 295 297 300 303 305 306 307 308 309 309 309 309 309 309 309 309 308 308 308 308 308 309 310 311 311 313 314 315 315 314 314 314 314 314 314 315 316 317 318 317 317 317 315 310 301 289 280 279 287 296 304 310 313 315 316 315 315 316
254 257 261 266 271 275 279 282 285 288 290 293 296 299 301 303 304 305 306 307 307 307 308 308 308 308 308 308 308 308 308 308 308 309 310 311 312 314 314 313 312 311 311 312 312 314 316 318 319 320 318 316 314 314 313 309 300 289 279 279 287 297 305 311 316 318 318 318 319
251 254 259 264 269 273 277 280 283 286 289 292 295 298 300 302 302 304 305 305 306 307 307 307 307 308 309 310 309 308 308 308 309 309 310 311 312 313 312 311 310 309 309 310 312 315 319 321 323 324 323 321 320 318 316 314 307 296 282 274 279 289 298 307 316 320 321 322 322
249 254 258 263 267 271 275 278 282 285 288 291 294 296 299 300 302 303 304 305 306 307 307 307 308 309 311 311 310 309 309 309 310 311 311 312 312 313 312 310 309 308 308 310 313 317 321 324 325 327 329 332 333 332 328 323 316 305 290 276 275 282 292 301 312 319 324 326 326
Height
883 883 883 882 881 880 880 879 878 877 876 875 874 873 873 871 870 869 868 867 865 864 863 861 860 858 857 855 854 853 851 850 848 847 845 844 842 841 839 838 836 834 832 830 828 825 823 821 819 818 816 813 812 810 808 807 805 803 802 800 798 796 795 793 791 790 788 787 786
883 882 882 881 881 880 879 878 877 877 876 875 874 873 872 871 869 868 867 866 865 863 862 861 859 858 856 855 853 852 851 849 848 846 844 843 842 840 838 837 835 833 832 829 828 825 823 821 819 817 815 813 812 810 808 806 805 803 801 799 798 796 794 793 791 789 788 786 784
882 882 881 880 880 879 878 878 877 876 875 874 873 872 871 870 869 868 867 865 864 863 861 860 858 857 856 854 853 852 850 848 847 845 844 842 841 839 838 836 835 833 831 829 827 825 823 821 819 817 815 813 811 809 808 806 805 803 801 799 798 796 794 792 791 789 787 785 784
881 881 880 880 879 878 878 877 876 875 874 873 872 871 870 869 868 867 866 864 863 862 861 859 858 856 855 853 852 851 849 848 847 845 843 842 840 839 837 836 834 832 830 829 827 825 823 821 819 817 815 813 812 810 808 806 804 803 801 799 798 796 794 792 791 789 787 785 783
880 880 879 879 878 878 877 876 875 874 873 873 871 870 869 868 867 866 865 864 863 861 860 858 857 856 854 853 852 850 848 847 846 844 843 841 840 838 837 835 833 832 830 828 826 825 823 821 819 817 815 813 812 810 808 806 804 803 801 799 797 796 794 792 791 789 787 785 783
879 879 878 878 877 877 876 875 874 873 873 872 871 870 868 868 867 865 864 863 862 860 859 858 856 855 853 852 851 849 848 846 845 844 842 841 839 838 836 834 833 831 829 827 826 824 822 821 819 817 815 813 812 810 808 806 805 803 801 799 797 796 794 792 791 789 787 785 784
878 878 878 877 877 876 875 874 873 873 872 871 870 869 868 867 866 865 863 862 861 859 858 857 855 854 853 851 850 848 847 846 844 843 842 840 838 837 835 834 832 830 828 827 825 823 822 820 818 817 815 813 811 809 808 806 804 803 801 799 797 796 794 792 791 789 787 785 783
878 877 877 876 875 875 874 873 873 872 871 870 869 868 867 866 865 864 863 861 860 858 857 856 855 853 852 851 849 848 846 845 843 842 841 839 838 836 835 833 831 830 828 826 824 823 821 820 818 817 815 813 811 809 807 806 804 803 801 799 797 795 793 792 790 788 787 785 783
877 876 876 875 874 874 873 873 872 871 870 869 868 867 866 865 864 863 862 860 859 858 856 855 854 852 851 850 848 847 845 844 843 841 840 838 837 836 834 833 831 829 827 825 824 822 821 819 818 816 814 813 811 809 807 805 804 802 800 798 797 795 793 792 790 788 786 785 783
876 875 875 874 874 873 872 872 871 870 869 868 867 866 865 864 863 862 861 859 858 857 856 854 853 851 850 849 847 846 845 843 842 840 839 838 836 835 833 832 830 828 827 825 823 822 820 819 817 816 814 813 811 809 807 805 803 802 800 798 796 794 793 791 789 788 786 784 782
875 874 874 873 873 872 871 871 870 869 868 867 866 865 864 863 862 861 860 858 857 856 855 853 852 851 849 848 846 845 844 842 841 839 838 837 835 834 833 831 829 828 826 824 823 821 819 818 816 815 813 812 810 808 806 805 803 801 800 798 796 794 792 790 789 787 785 784 782
874 873 873 873 872 871 870 870 869 868 867 866 865 864 863 862 861 860 858 858 856 855 853 852 851 850 848 847 845 844 843 841 840 838 837 836 834 833 832 830 829 827 825 824 822 821 819 817 816 814 812 811 809 808 806 804 803 801 799 797 796 794 792 790 788 787 785 783 782
873 873 872 872 871 870 869 869 868 867 866 864 863 863 862 861 859 858 858 856 855 854 853 851 850 849 847 846 844 843 842 840 839 838 836 835 833 832 831 829 828 826 824 823 821 820 818 816 815 813 812 810 808 807 805 804 802 800 799 797 795 793 791 789 788 786 785 783 781
872 872 871 870 870 869 868 868 867 866 865 863 863 862 861 859 858 858 856 855 854 853 851 850 849 848 846 845 843 842 841 839 838 837 835 834 833 831 830 828 827 825 823 822 820 819 817 816 814 813 811 809 808 806 805 803 802 800 798 797 795 793 791 789 788 786 784 783 781
871 871 870 870 869 868 868 867 866 865 864 863 862 861 860 858 858 856 855 854 853 852 850 849 848 847 845 844 843 841 840 838 837 836 834 833 832 830 829 827 826 824 823 821 819 818 816 815 813 812 810 809 807 805 804 803 801 799 798 796 794 793 791 789 787 785 784 782 781
870 870 869 869 868 868 867 866 865 864 863 862 861 860 859 858 856 855 854 853 852 850 849 848 847 845 844 843 841 840 839 838 836 835 833 832 831 829 828 826 824 823 821 820 818 816 815 814 812 811 809 808 807 805 803 802 800 798 797 795 794 792 790 788 787 785 783 782 780
869 869 868 868 867 867 866 865 864 863 862 861 860 859 858 857 855 854 853 852 851 849 848 847 846 844 843 842 840 839 838 837 835 834 833 831 829 828 827 825 823 822 820 818 817 815 814 813 811 810 809 807 806 804 803 801 799 798 796 794 793 791 790 788 786 785 783 782 780
869 868 868 867 866 865 865 864 863 862 861 860 859 858 857 855 854 853 852 851 849 848 847 846 844 843 842 840 839 838 837 835 834 833 832 830 828 827 825 824 822 821 819 817 816 814 813 811 810 809 808 806 805 803 802 800 799 797 795 794 792 790 789 788 786 784 783 781 779
868 867 867 866 865 864 864 863 862 861 860 859 858 857 855 854 853 852 851 849 848 847 846 844 843 842 841 839 838 837 836 834 833 832 830 829 828 826 824 823 821 819 818 816 814 813 812 810 809 808 807 805 804 803 801 800 798 796 794 793 791 790 788 787 785 784 782 781 779
867 866 866 865 864 863 863 862 861 860 859 858 857 856 854 853 852 851 849 848 847 846 845 843 842 841 839 838 837 836 834 833 832 830 829 828 826 825 823 822 820 818 817 815 813 812 810 809 807 806 805 804 803 802 800 798 797 795 793 792 791 789 788 787 785 783 782 780 778
866 865 865 864 863 862 862 861 860 859 858 857 856 854 853 852 851 850 848 847 846 845 843 842 841 839 838 837 836 834 833 832 831 829 828 827 825 823 822 820 818 817 815 813 812 811 809 807 805 804 803 803 802 800 799 797 795 794 793 792 790 789 787 786 784 783 781 779 778
865 864 864 863 862 861 861 860 859 858 857 856 855 853 852 851 850 848 847 846 845 843 842 841 840 838 837 836 834 833 832 831 829 828 827 825 824 822 821 819 818 816 814 812 811 809 808 805 803 802 801 801 800 799 797 796 794 793 792 791 790 788 787 785 783 782 780 778 777
864 863 863 862 861 860 859 859 858 857 856 855 854 853 851 850 849 848 846 845 843 842 841 840 838 837 836 834 833 832 830 829 828 827 826 824 823 821 819 818 816 814 813 811 810 808 806 804 802 801 800 799 798 797 796 794 793 792 791 790 788 787 786 784 783 781 779 778 776
863 862 862 861 860 859 858 858 857 856 855 854 853 852 850 849 848 846 845 844 843 841 840 838 837 836 834 833 832 831 829 828 827 825 824 823 821 820 818 817 815 813 812 810 809 807 805 803 801 799 798 798 797 795 794 793 792 791 790 789 788 786 785 783 782 780 778 777 775
862 861 861 860 859 858 858 857 856 855 854 853 852 851 849 848 847 845 844 843 841 840 838 837 836 834 833 832 831 830 828 827 826 824 823 821 820 819 817 816 814 812 811 809 808 806 805 803 801 799 797 796 795 794 793 792 791 790 789 788 787 785 784 783 781 779 778 776 775
861 860 860 859 858 858 857 856 855 854 853 852 851 850 848 847 846 845 843 842 840 839 838 836 835 833 832 831 830 829 828 826 825 823 822 820 819 818 816 814 813 811 809 808 807 805 803 802 800 798 797 796 794 793 792 791 790 789 788 787 786 785 783 782 780 779 777 776 774
860 859 858 858 857 857 856 855 854 853 853 851 850 849 848 847 845 844 842 841 839 838 837 835 834 833 832 830 829 828 827 825 824 823 821 819 818 816 815 813 812 810 808 807 805 804 803 801 799 797 796 795 793 793 792 790 789 788 787 786 785 784 783 781 780 778 777 775 773
858 858 858 857 856 856 855 854 853 853 852 850 849 848 847 846 844 843 842 840 839 837 836 834 833 832 831 829 828 827 826 824 823 821 820 818 817 815 814 812 810 808 807 806 804 803 801 800 798 797 795 793 792 791 790 789 788 787 786 786 784 783 782 780 779 778 776 774 773
857 857 857 856 855 855 854 853 853 852 851 849 848 847 846 845 843 842 841 839 838 837 835 834 833 831 830 829 827 826 824 823 822 820 819 817 816 814 813 811 809 808 806 804 803 802 800 799 798 796 793 792 790 789 788 788 787 786 786 785 784 782 781 780 778 777 775 774 773
856 856 856 855 854 854 853 852 851 851 850 848 848 846 845 844 843 841 840 839 837 836 835 833 832 831 829 828 827 825 823 822 821 819 818 816 815 813 812 810 808 806 804 803 802 801 799 798 797 795 793 791 789 788 787 786 785 785 784 784 783 782 780 779 778 776 775 773 772
855 855 855 854 853 853 852 851 850 850 849 848 847 845 844 843 842 841 839 838 837 835 834 833 831 830 829 827 826 824 823 821 820 818 817 816 814 812 810 809 807 805 803 802 801 800 798 797 795 794 792 790 788 787 786 785 784 783 783 782 782 780 779 778 777 775 774 773 772
854 854 853 853 853 852 851 850 849 848 848 847 846 845 843 842 841 840 838 837 836 834 833 832 831 829 828 826 825 823 822 821 819 818 816 815 813 811 809 808 806 804 803 801 800 799 798 796 794 793 791 789 787 786 785 784 783 781 781 780 780 779 778 777 776 775 773 772 771
853 853 853 852 851 851 850 849 848 848 847 846 845 843 843 841 840 839 838 836 835 833 832 831 830 828 827 825 824 823 821 820 818 817 815 813 812 810 808 807 805 803 802 800 799 798 796 795 793 792 790 788 787 785 784 783 782 780 779 778 778 777 777 776 775 774 773 771 770
852 852 851 851 850 850 849 848 848 847 846 845 844 843 842 840 839 838 837 835 834 833 832 830 829 828 826 825 823 822 820 819 817 816 814 813 811 809 808 806 804 803 801 800 798 797 795 794 792 791 789 788 786 784 783 782 781 780 778 777 776 775 775 774 773 773 772 770 769
850 850 850 850 849 849 848 847 847 846 845 844 843 842 841 839 838 837 836 834 833 832 831 829 828 827 825 824 823 821 820 818 817 815 813 812 810 808 807 805 804 802 801 799 797 796 794 793 791 790 788 787 785 783 782 781 780 779 778 776 775 774 773 773 772 771 770 769 768
849 849 849 849 848 848 847 846 845 845 844 843 842 841 839 838 837 836 835 833 832 831 830 828 827 826 824 823 822 820 819 818 816 814 813 811 809 808 806 805 803 801 800 798 796 795 793 792 790 789 788 786 784 783 781 779 778 778 777 776 774 773 772 771 771 770 769 768 768
848 848 848 848 847 847 846 845 844 843 843 842 841 839 838 837 836 835 834 833 831 830 828 827 826 825 823 822 821 819 818 817 815 814 812 810 809 808 806 804 802 801 799 797 795 794 792 791 789 788 787 785 783 782 780 778 777 776 775 774 773 772 771 770 770 769 768 768 767
847 847 847 847 846 845 845 844 843 843 842 841 839 838 838 836 835 834 833 832 830 829 828 826 825 824 823 821 820 818 817 816 815 813 811 810 808 807 806 804 802 800 798 796 795 793 791 790 788 787 785 783 782 780 779 777 775 774 773 773 772 771 770 769 768 768 767 766 765
846 846 846 845 845 844 844 843 842 842 841 839 838 838 837 835 834 833 832 831 830 828 827 825 824 823 822 820 819 818 816 815 814 813 811 809 808 807 805 803 801 799 797 796 794 792 791 789 788 785 783 782 780 779 777 775 773 772 771 771 770 770 769 768 768 767 766 765 764
845 845 844 844 844 843 843 842 841 840 839 838 838 836 835 834 833 832 831 830 828 827 826 824 823 822 821 820 818 817 815 814 813 812 810 809 807 806 804 803 800 798 797 795 793 792 790 789 787 784 782 780 778 777 776 774 772 770 769 769 769 768 768 767 766 765 765 764 763
843 843 843 843 843 842 842 841 840 839 838 838 837 836 834 833 832 831 830 829 828 826 825 824 822 821 820 819 818 816 814 813 812 811 809 808 806 805 803 802 800 798 796 794 793 791 790 788 786 784 782 779 778 776 775 773 771 769 768 768 768 767 766 765 765 764 764 763 763